Location: Evergreen Manor
(41.4083°N, 81.4939°W)
Time: 05:55:33
(UTC+00:00)

Cosmos 1340 - Pass Details

Date: 11 December 2019
Orbit: 502 x 506 km, 81.2° (Epoch: 25 January)

Event Time Altitude Azimuth Distance (km) Brightness Sun altitude
Rises 10:41:02 0° 180° (S) 2,583 6.4 -21.9°
Reaches altitude 10° 10:43:09 10° 177° (S) 1,705 5.5 -21.5°
Maximum altitude 10:46:50 60° 97° (E) 579 3.1 -20.8°
Drops below altitude 10° 10:50:34 10° 17° (NNE) 1,722 5.4 -20.1°
Sets 10:52:43 0° 14° (NNE) 2,613 6.3 -19.7°
